Satellite: NO-44
Catalog number: 26931
Epoch time:      11354.61405815
Element set:    0926
Inclination:      067.0503 deg
RA of node:       223.1349 deg
Eccentricity:    0.0005034
Arg of perigee:   274.8264 deg
Mean anomaly:     085.2264 deg
Mean motion:   14.29739002 rev/day
Decay rate:       -9.6e-07 rev/day^2
Epoch rev:           53357
Checksum:              294

Satellite: SO-50
Catalog number: 27607
Epoch time:      11354.50503722
Element set:    0643
Inclination:      064.5571 deg
RA of node:       121.3824 deg
Eccentricity:    0.0084132
Arg of perigee:   283.4731 deg
Mean anomaly:     075.7015 deg
Mean motion:   14.72104815 rev/day
Decay rate:      1.001e-05 rev/day^2
Epoch rev:           48351
Checksum:              263

Satellite: CO-55
Catalog number: 27844
Epoch time:      11354.50765115
Element set:    0269
Inclination:      098.7048 deg
RA of node:       000.5029 deg
Eccentricity:    0.0010357
Arg of perigee:   024.2823 deg
Mean anomaly:     335.8827 deg
Mean motion:   14.20929459 rev/day
Decay rate:       3.35e-06 rev/day^2
Epoch rev:           43937
Checksum:              313

Satellite: CO-57
Catalog number: 27848
Epoch time:      11355.67793179
Element set:     217
Inclination:      098.7118 deg
RA of node:       000.9141 deg
Eccentricity:    0.0010433
Arg of perigee:   026.5773 deg
Mean anomaly:     333.5931 deg
Mean motion:   14.20694643 rev/day
Decay rate:       2.94e-06 rev/day^2
Epoch rev:           43948
Checksum:              324

Satellite: AO-51
Catalog number: 28375
Epoch time:      11354.85272800
Element set:     148
Inclination:      098.1218 deg
RA of node:       323.7328 deg
Eccentricity:    0.0082684
Arg of perigee:   224.3797 deg
Mean anomaly:     135.0672 deg
Mean motion:   14.40875073 rev/day
Decay rate:       4.75e-06 rev/day^2
Epoch rev:           39294
Checksum:              325

Satellite: CP3
Catalog number: 31129
Epoch time:      11354.47808781
Element set:    0049
Inclination:      097.8887 deg
RA of node:       007.8325 deg
Eccentricity:    0.0100890
Arg of perigee:   322.6245 deg
Mean anomaly:     036.7976 deg
Mean motion:   14.52798891 rev/day
Decay rate:       9.61e-06 rev/day^2
Epoch rev:           24788
Checksum:              349

Satellite: CO-65
Catalog number: 32785
Epoch time:      11354.67284936
Element set:    0182
Inclination:      097.8253 deg
RA of node:       054.7967 deg
Eccentricity:    0.0013771
Arg of perigee:   290.6040 deg
Mean anomaly:     069.3727 deg
Mean motion:   14.82538620 rev/day
Decay rate:      1.497e-05 rev/day^2
Epoch rev:           19716
Checksum:              345

Satellite: PRISM
Catalog number: 33493
Epoch time:      11355.71078090
Element set:     257
Inclination:      098.1461 deg
RA of node:       127.4440 deg
Eccentricity:    0.0019778
Arg of perigee:   153.1349 deg
Mean anomaly:     207.0890 deg
Mean motion:   14.82888468 rev/day
Decay rate:      3.746e-05 rev/day^2
Epoch rev:           15729
Checksum:              327

Satellite: SOHLA-1
Catalog number: 33496
Epoch time:      11354.93687591
Element set:    0612
Inclination:      098.0938 deg
RA of node:       103.0484 deg
Eccentricity:    0.0005679
Arg of perigee:   247.8349 deg
Mean anomaly:     112.2253 deg
Mean motion:   14.69814529 rev/day
Decay rate:       4.88e-06 rev/day^2
Epoch rev:           15591
Checksum:              334

Satellite: TISAT-1
Catalog number: 36799
Epoch time:      11355.71399797
Element set:     527
Inclination:      098.0824 deg
RA of node:       065.6815 deg
Eccentricity:    0.0015820
Arg of perigee:   034.6310 deg
Mean anomaly:     325.5933 deg
Mean motion:   14.81318894 rev/day
Decay rate:      2.087e-05 rev/day^2
Epoch rev:            7806
Checksum:              335

Satellite: STUDSAT
Catalog number: 36801
Epoch time:      11354.91956013
Element set:    0317
Inclination:      098.0865 deg
RA of node:       064.9694 deg
Eccentricity:    0.0013486
Arg of perigee:   024.0965 deg
Mean anomaly:     336.0864 deg
Mean motion:   14.82589192 rev/day
Decay rate:      5.787e-05 rev/day^2
Epoch rev:           07794
Checksum:              340

Satellite: OOREOS
Catalog number: 37224
Epoch time:      11330.25217324
Element set:    0033
Inclination:      071.9741 deg
RA of node:       041.3371 deg
Eccentricity:    0.0020052
Arg of perigee:   337.4654 deg
Mean anomaly:     022.5620 deg
Mean motion:   14.77385090 rev/day
Decay rate:      2.151e-05 rev/day^2
Epoch rev:           00594
Checksum:              243

Satellite: FO-69
Catalog number: 37227
Epoch time:      11355.50289190
Element set:    0055
Inclination:      071.9705 deg
RA of node:       346.1865 deg
Eccentricity:    0.0018743
Arg of perigee:   290.9933 deg
Mean anomaly:     068.9239 deg
Mean motion:   14.76857686 rev/day
Decay rate:       7.86e-06 rev/day^2
Epoch rev:           00971
Checksum:              358

